#timestamp,LO_Frequency,Hit,StdDev 
1663596015.9,286047004.2,Y
1663596035.7,286047003.5,P
1663596055.6,286047004.4,N
1663596075.4,286047004.1,N
1663596095.2,286047001.4,N
1663596115.1,286047000.4,N
1663596116.0,286047000.4,N
1663596135.8,286047000.7,N
1663596155.6,286047002.6,N
1663596175.5,286047002.2,N
1663596195.3,286047004.4,N
1663596215.2,286047003.6,N
1663596235.9,286047004.2,N
1663596255.7,286047001.9,N
1663596275.6,286047002.2,N
1663596295.4,286047002.0,N
1663596315.2,286047001.6,N
1663596335.1,286047003.8,N
1663596336.0,286047003.8,N
1663596355.8,286047005.8,Y
1663596375.7,286047002.4,P
1663596395.5,286047002.7,P
1663596415.3,286047002.2,P
1663596435.2,286047002.5,Y
1663596455.0,286047000.9,P
1663596455.9,286047000.9,N
1663596475.8,286046996.9,P
1663596495.6,286046997.8,N
1663596515.4,286046995.5,N
1663596535.3,286046997.7,N
1663596555.1,286046997.3,N
1663596575.8,286047000.7,N
1663596595.7,286047000.5,N
1663596615.5,286047000.8,N
1663596635.4,286047000.6,N
1663596655.2,286047000.3,N
1663596675.0,286046999.8,N
1663596675.9,286046999.8,N
1663596695.8,286047000.6,N
1663596715.6,286047000.7,N
1663596735.5,286047000.6,N
1663596755.3,286046999.2,N
1663596775.1,286046999.2,N
1663596795.9,286046999.0,N
1663596815.7,286046998.8,N
1663596835.6,286046996.9,N
1663596855.4,286046997.0,N
1663596875.2,286046998.0,N
1663596895.1,286046997.2,N
1663596896.0,286046997.2,N
1663596915.8,286046998.9,N
1663596935.6,286046999.3,N
1663596955.5,286047001.2,N
1663596975.3,286047001.0,N
1663596995.2,286046996.7,N
1663597015.9,286046996.7,N
1663597035.7,286046999.2,N
1663597055.6,286046999.4,N
1663597075.4,286046997.7,N
1663597095.2,286046997.0,N
1663597115.1,286046998.9,N
1663597116.0,286046998.9,N
1663597135.8,286046999.5,N
1663597155.7,286046999.6,N
1663597175.5,286046996.8,N
1663597195.3,286047001.0,N
1663597215.2,286047001.2,N
1663597235.0,286047000.6,N
1663597235.9,286047000.6,N
1663597255.7,286047000.1,N
1663597275.6,286046999.7,N
1663597295.4,286047002.5,N
1663597315.3,286047001.6,N
1663597335.1,286047002.4,N
1663597355.8,286047002.6,N
1663597375.7,286047000.7,N
1663597395.5,286046999.3,N
1663597415.4,286046999.0,N
1663597435.2,286047000.7,N
1663597455.0,286047001.0,N
1663597455.9,286047001.0,N
1663597475.8,286046999.4,N
1663597495.6,286046997.2,N
1663597515.4,286046999.3,N
1663597535.3,286046999.3,N
1663597555.1,286046998.3,N
1663597575.9,286046998.7,N
1663597595.7,286046996.8,N
1663597615.5,286046999.3,N
1663597635.4,286046998.9,N
1663597655.2,286046998.6,N
1663597675.0,286047000.5,N
1663597676.0,286047000.5,N
1663597695.8,286047000.5,N
1663597715.6,286046999.8,N
1663597735.5,286046998.4,N
1663597755.3,286047000.4,N
1663597775.1,286047000.3,N
1663597795.9,286047002.3,N
1663597815.7,286047000.0,N
1663597835.6,286046998.8,N
1663597855.4,286046996.6,N
1663597875.2,286046995.1,Y
1663597895.1,286046995.0,P
1663597896.0,286046995.0,N
1663597915.8,286046996.7,N
1663597935.7,286046997.6,N
1663597955.5,286046998.0,N
1663597975.3,286046995.5,N
1663597995.2,286046995.9,N
1663598015.0,286046995.9,N
1663598015.9,286046995.9,N
1663598035.7,286046993.9,Y
1663598055.6,286046998.5,P
1663598075.4,286046998.4,N
1663598095.3,286046998.6,N
1663598115.1,286047000.5,N
1663598116.0,286047000.5,N
1663598135.8,286047002.5,N
1663598155.7,286047003.7,N
1663598175.5,286047004.0,N
1663598195.3,286047004.0,N
1663598215.2,286047000.1,N
1663598235.0,286046999.8,N
1663598235.9,286046999.8,N
1663598255.8,286047004.1,N
1663598275.6,286047005.2,N
1663598295.4,286047005.1,N
1663598315.3,286047007.5,N
1663598335.1,286047007.5,N
1663598355.8,286047007.0,N
1663598375.7,286047009.1,N
1663598395.5,286047009.0,N
1663598415.4,286047006.3,N
1663598435.2,286047006.3,N
1663598455.0,286047008.5,N
1663598455.9,286047008.5,N
1663598475.8,286047008.5,N
1663598495.6,286047008.3,N
1663598515.4,286047009.1,N
1663598535.3,286047008.8,N
1663598555.1,286047008.5,N
1663598575.9,286047008.3,N
1663598595.7,286047008.0,N
1663598615.5,286047008.0,N
1663598635.4,286047010.7,Y
1663598655.2,286047001.3,P
1663598675.4,286047003.6,N
1663598695.3,286047001.4,N
1663598715.1,286047002.2,N
1663598735.9,286046999.7,N
1663598755.7,286046999.7,N
1663598775.5,286046999.7,N
1663598795.4,286047002.3,N
1663598815.2,286047000.3,N
1663598835.1,286046999.7,N
1663598836.0,286046999.7,N
1663598855.8,286047002.1,N
1663598875.6,286047002.7,N
1663598895.5,286046999.9,N
1663598915.3,286047000.2,N
1663598935.1,286047000.3,N
1663598955.9,286046998.2,N
1663598975.7,286046999.1,N
1663598995.6,286046997.1,N
1663599015.4,286046997.6,N
1663599035.2,286046997.3,N
1663599055.1,286046997.8,N
1663599056.0,286046997.8,N
1663599075.8,286046997.5,N
1663599095.6,286046995.8,N
1663599115.5,286046995.5,N
1663599135.3,286046997.5,N
1663599155.2,286046996.9,N
1663599175.9,286046997.1,N
1663599195.7,286046997.9,N
1663599215.6,286046997.8,N
1663599235.4,286046996.7,N
1663599255.2,286046997.4,N
1663599275.1,286046995.0,N
1663599276.0,286046995.0,N
1663599295.8,286046995.7,N
1663599315.7,286046993.4,Y
1663599335.5,286046996.1,P
1663599355.3,286046995.6,P
1663599375.2,286046995.6,P
1663599395.0,286046995.7,Y
1663599395.9,286046995.7,P
1663599415.8,286046998.7,P
1663599435.6,286046999.5,N
1663599455.4,286046998.4,N
1663599475.3,286046999.1,N
1663599495.1,286046998.6,N
1663599515.9,286046999.3,N
1663599535.7,286046998.4,N
1663599555.5,286046998.9,N
1663599575.4,286046996.9,N
1663599595.2,286046999.6,N
